Theta_e
315 314 313 314 314 313 314 314 314 315 315 315 316 314 314 313 312 314 314 312 313 314 315 315 315 315 316 315 317 317 316 316 316 316 316 316 316 316 316 316 316 316 315 314 314 315 315 315 315 315 315 315 315 315 315 315 315 315 315 315 315 315 315 315 314 315 315 315 316 317 318 317 317 319 319 319 318 317 316 316 315 315 314 316 319 321
314 314 313 313 314 314 313 314 314 314 314 315 315 314 314 314 314 314 314 312 313 313 314 316 315 315 316 316 316 317 317 317 317 317 317 317 317 317 317 317 317 316 316 315 315 315 315 315 315 315 315 315 315 315 315 315 315 315 315 315 315 315 315 315 315 315 315 315 315 315 316 316 317 319 319 318 317 317 318 318 317 315 315 316 318 321
314 314 314 313 314 314 314 314 313 314 314 314 315 314 313 314 314 313 313 313 312 313 314 316 315 315 316 316 317 317 317 317 317 317 317 317 317 317 317 318 318 318 316 316 315 315 316 316 316 315 315 315 315 315 315 315 315 315 315 315 315 315 315 315 315 315 315 315 315 315 316 316 317 319 319 318 318 318 319 319 318 316 314 316 319 322
314 314 313 313 313 313 313 313 313 314 314 314 315 313 314 316 314 313 314 313 312 312 313 315 315 315 316 316 316 317 318 318 318 318 318 318 318 318 318 318 319 319 317 316 316 316 316 316 316 316 316 316 316 315 315 315 315 315 315 315 315 315 315 315 315 315 315 315 315 316 316 317 321 323 322 319 319 319 319 320 319 317 314 316 319 322
314 311 310 311 313 313 313 313 314 314 313 316 317 315 315 316 315 314 314 313 313 313 313 314 314 314 315 315 315 317 318 318 318 317 317 317 317 317 317 318 318 318 317 316 317 316 316 316 316 316 316 316 316 316 316 315 315 316 315 315 315 315 315 315 315 315 315 315 315 316 316 317 320 322 322 321 320 319 320 320 319 318 317 318 319 320
314 309 308 311 312 313 314 313 315 314 313 315 318 317 315 315 315 315 315 314 314 314 314 314 312 312 315 316 316 317 317 316 317 316 316 316 316 316 315 316 316 316 316 316 316 316 316 316 316 316 315 316 316 316 316 316 316 316 316 315 315 315 315 315 315 315 315 315 315 315 315 316 318 318 318 318 318 318 319 320 320 322 322 321 320 320
311 307 309 313 313 315 315 313 315 316 313 314 317 317 315 315 316 316 317 315 313 314 314 313 313 312 315 316 317 317 316 315 316 316 316 316 316 316 315 314 314 315 315 315 315 315 315 315 315 315 315 315 315 315 315 315 315 316 316 316 316 315 315 315 315 315 315 315 315 315 315 315 316 316 316 316 316 317 317 317 319 322 322 321 319 319
309 308 311 314 315 316 315 314 317 316 313 315 317 317 315 316 317 317 317 315 314 315 314 314 315 313 313 316 317 316 315 315 316 316 317 316 316 317 315 314 313 313 313 314 314 314 314 315 315 315 315 315 315 315 315 314 314 314 315 315 316 316 316 315 315 315 315 315 315 315 315 315 315 316 316 316 316 316 316 316 317 318 319 318 318 318
311 311 313 314 315 316 315 315 317 316 315 316 315 316 316 317 318 317 317 315 315 315 313 315 317 313 311 315 316 315 314 315 315 315 317 318 317 317 315 314 313 313 313 313 313 313 313 314 314 314 314 314 314 314 314 314 313 314 314 314 315 315 316 315 315 315 315 315 315 315 315 315 315 316 316 316 316 316 316 317 317 318 318 318 319 319
312 312 312 314 316 315 313 312 315 319 317 314 313 315 316 317 318 317 316 315 315 313 313 316 317 312 311 313 315 315 314 314 316 316 317 318 317 316 316 315 314 314 314 314 314 314 313 314 313 313 314 313 314 314 314 314 314 314 314 313 314 314 315 315 315 314 314 314 314 315 315 315 315 316 316 316 316 316 317 318 320 321 321 321 322 322
312 310 311 313 314 313 310 309 312 317 315 314 315 316 315 315 315 315 315 314 314 313 314 315 316 313 311 312 314 316 315 314 316 315 316 316 316 316 316 315 314 314 315 315 314 314 314 314 314 314 314 313 314 314 314 314 314 314 314 314 314 314 314 314 314 314 314 314 314 314 315 315 315 316 316 316 316 316 317 318 319 321 321 321 321 322
312 311 312 312 310 311 312 311 311 313 313 315 317 315 314 315 314 313 314 314 313 313 312 311 314 314 311 312 314 315 314 313 314 314 315 316 317 318 317 315 314 314 315 315 314 314 313 314 314 314 313 313 314 314 314 314 314 314 314 314 314 314 313 313 313 314 313 313 314 314 315 315 315 315 316 316 317 317 317 318 318 318 319 319 319 319
315 313 313 312 309 311 314 313 311 312 313 315 315 314 313 314 314 314 314 314 313 313 310 309 312 314 312 312 314 315 314 314 313 314 315 315 316 317 316 315 314 314 316 316 314 313 313 313 313 313 313 312 313 314 314 315 315 315 314 314 314 313 313 313 313 313 313 313 314 314 315 315 315 316 316 316 317 317 317 317 317 317 317 318 318 318
316 314 313 313 311 311 314 314 312 312 312 314 315 314 313 313 314 315 315 314 313 312 309 309 311 313 312 313 315 315 315 314 313 313 313 313 313 313 314 314 314 314 316 317 315 314 314 314 314 314 314 314 315 315 316 316 315 315 315 314 314 313 313 312 313 313 313 314 314 314 315 315 316 316 316 317 317 317 317 316 316 316 316 316 316 316
316 314 313 314 313 312 314 315 314 314 313 316 318 315 313 314 315 314 314 315 314 312 310 309 311 312 312 313 315 315 314 313 312 312 312 312 312 312 312 313 314 314 316 317 316 316 316 316 316 317 316 317 317 317 317 316 316 315 315 315 314 314 313 313 313 313 313 314 314 315 315 316 316 317 317 317 317 316 316 316 316 316 316 316 316 316
315 314 313 312 312 312 314 314 315 315 314 314 316 315 314 315 314 313 312 312 312 312 311 311 311 313 314 315 315 315 315 313 312 311 310 311 312 312 312 314 314 315 316 317 317 317 317 317 317 317 317 317 317 317 317 316 316 315 315 315 314 314 314 314 314 314 315 315 315 315 316 316 317 317 317 317 316 316 316 316 316 316 316 316 315 316
314 314 312 311 311 311 311 313 314 314 314 313 313 313 313 314 314 312 310 309 309 311 313 313 313 313 313 315 315 316 315 313 312 311 311 312 312 312 312 314 314 314 316 317 316 316 317 317 317 317 317 317 317 317 317 317 316 316 315 315 315 315 315 315 315 315 316 316 316 316 317 317 317 317 316 316 316 316 316 316 316 316 316 316 316 316
315 313 312 313 314 310 308 310 312 311 312 313 313 313 312 312 313 311 311 311 310 311 312 313 313 312 311 313 314 314 313 314 313 312 311 312 312 312 313 314 314 314 315 316 316 316 316 316 316 317 317 317 317 317 317 317 317 317 317 316 316 316 316 317 316 317 317 317 317 317 317 316 316 316 316 316 316 316 316 316 316 316 316 316 316 315
316 314 312 312 313 311 309 311 313 311 311 313 313 314 313 313 313 311 312 313 312 313 313 312 312 311 311 312 313 313 313 313 314 313 312 312 313 314 315 315 314 314 315 316 316 316 316 316 316 316 316 316 317 317 317 317 317 317 317 317 317 317 317 317 316 317 316 317 316 316 316 316 316 316 316 316 316 316 316 316 316 316 316 316 316 315
316 315 314 311 311 312 311 312 313 313 312 311 311 312 313 314 313 312 313 312 312 313 312 312 312 311 313 313 313 313 313 313 313 313 314 313 314 315 315 314 313 314 315 315 315 316 316 316 316 316 316 316 316 316 316 317 316 317 316 316 316 316 316 316 316 316 316 316 316 316 316 316 316 316 316 316 316 316 316 316 315 315 315 315 315 315
313 313 315 312 311 313 313 313 314 315 313 312 312 312 312 313 312 312 313 312 312 312 312 313 312 312 313 314 313 313 313 313 314 314 315 315 314 313 313 313 313 313 314 314 314 314 315 316 316 316 316 316 316 316 316 316 316 316 316 316 316 316 316 316 316 316 316 316 316 316 316 316 316 316 316 316 316 316 316 315 315 315 315 315 315 315
312 311 315 313 312 313 314 313 312 314 315 314 313 313 313 313 312 313 314 313 311 311 311 312 312 312 314 314 313 313 312 312 313 314 315 314 312 311 312 312 313 313 313 314 313 313 314 315 316 316 316 316 316 316 316 316 316 316 316 315 316 316 315 316 315 316 316 315 316 316 316 316 316 316 316 315 316 315 315 315 315 315 315 315 315 315
313 313 315 314 314 313 312 310 307 309 315 315 313 314 314 314 313 314 315 314 312 310 309 311 312 313 314 312 311 312 311 310 310 311 313 313 311 311 312 312 312 313 312 313 313 313 313 314 315 316 316 315 316 316 315 315 315 315 315 315 315 315 315 315 315 315 316 316 316 316 316 316 316 315 315 315 315 315 315 315 315 315 315 315 315 315
312 314 315 314 313 312 311 310 308 310 314 313 313 315 314 315 316 314 313 314 313 311 310 311 312 313 314 314 312 311 310 309 309 309 311 312 312 312 313 313 313 313 312 312 312 312 313 314 315 316 316 315 315 315 315 315 315 315 315 315 315 315 315 315 316 316 316 316 316 316 315 315 315 315 315 315 315 315 315 315 314 314 314 314 314 314
312 313 315 314 314 314 313 313 312 312 313 312 314 315 314 315 317 314 312 312 313 314 314 312 312 313 315 314 311 310 310 310 310 309 309 311 312 312 313 313 313 313 313 313 313 313 314 314 315 316 316 315 315 315 315 315 315 315 315 315 315 315 315 315 316 316 315 316 315 315 315 315 315 315 315 315 314 314 314 314 313 314 314 314 314 314
312 313 314 314 315 315 315 315 315 315 313 312 315 316 314 315 315 313 313 313 313 316 316 313 312 313 312 311 310 310 310 311 312 311 309 310 313 313 313 313 314 314 314 314 314 314 314 314 314 315 315 315 315 315 315 315 315 315 315 315 315 315 315 315 315 315 315 315 315 315 315 315 315 315 314 314 314 314 313 313 313 314 314 314 313 313
312 313 313 313 314 315 315 316 317 317 315 314 316 317 316 316 315 315 314 314 314 316 316 314 314 314 312 310 310 311 311 311 312 312 311 311 312 313 313 314 314 314 315 314 315 315 314 314 315 315 315 315 315 315 315 315 315 315 315 315 315 315 315 315 315 315 315 315 315 315 315 315 315 315 314 314 313 313 313 313 313 313 313 312 312 311
311 313 314 314 315 314 314 317 318 318 316 315 316 317 317 316 316 316 315 315 315 315 314 315 316 315 313 312 311 312 312 312 313 313 313 312 313 313 314 314 314 314 314 314 315 314 314 315 315 315 315 315 315 315 315 315 315 315 315 315 315 315 315 315 315 315 315 314 314 314 314 314 314 314 313 313 313 313 312 312 312 311 311 311 310 310
311 312 314 315 315 315 315 317 318 317 317 316 316 316 317 316 315 316 315 315 316 315 314 315 316 316 314 313 312 312 313 313 313 314 313 313 313 313 313 313 313 314 314 314 314 314 314 314 314 315 315 314 315 315 315 315 315 315 315 315 315 315 314 315 315 314 314 314 314 314 314 313 313 313 312 312 312 311 311 311 310 310 310 310 309 309
312 312 313 315 315 315 315 316 317 316 317 317 317 317 317 316 315 315 315 315 315 316 314 314 316 316 315 314 313 313 313 314 313 313 312 312 313 313 313 312 313 314 313 313 314 314 314 314 314 314 314 314 314 314 315 315 315 315 315 315 315 314 314 314 314 314 314 314 313 313 312 312 312 311 311 311 311 310 310 310 310 309 309 309 308 308
312 312 314 315 314 314 315 316 317 317 316 317 318 318 317 315 315 315 315 315 315 315 315 315 316 316 315 315 314 314 314 313 312 312 312 312 312 313 313 313 314 315 314 313 313 314 314 314 314 314 314 314 314 315 315 314 314 314 314 314 314 314 314 313 313 313 313 312 312 311 311 311 310 310 310 310 310 309 309 309 309 308 308 307 307 306
311 312 314 313 312 313 315 317 316 314 313 314 316 318 316 315 315 315 315 315 315 315 316 316 316 315 315 316 315 314 313 312 312 312 312 312 312 312 313 314 314 314 312 312 313 314 314 314 313 313 313 313 313 313 313 313 313 313 313 313 313 313 313 312 312 311 311 311 310 310 310 309 309 309 309 309 309 308 308 307 306 306 305 304 304 303
310 311 312 312 312 313 315 316 314 312 311 311 313 316 316 315 315 315 315 315 315 315 315 316 316 315 315 316 315 314 313 312 312 312 312 313 313 313 313 313 312 312 311 312 312 313 313 313 312 312 311 311 311 311 311 311 312 312 312 312 312 311 311 310 310 310 310 309 309 309 309 309 309 308 308 307 306 305 305 304 303 302 302 301 301 301
311 312 312 312 312 312 313 314 312 311 311 312 313 315 315 315 315 315 315 315 315 315 315 315 315 315 315 314 314 314 313 313 312 312 312 312 313 313 312 311 311 311 311 311 312 312 313 312 312 311 311 310 310 310 310 310 311 311 310 310 310 310 309 309 309 309 309 309 308 308 308 307 307 306 305 304 303 302 301 301 300 300 300 299 299 299
312 312 311 311 312 311 311 311 311 311 312 312 313 314 315 315 314 315 315 315 315 315 315 315 315 315 315 314 313 313 312 312 312 312 312 312 311 311 311 311 310 310 310 311 311 311 311 311 310 310 309 309 309 309 309 309 309 309 309 309 308 308 308 308 308 308 308 307 307 306 305 304 303 302 301 301 300 300 299 299 299 299 299 299 300 300
312 311 311 311 312 311 310 310 311 312 313 312 313 313 314 315 315 315 316 316 315 315 315 315 314 314 315 315 314 313 312 311 311 311 311 311 311 311 310 310 310 310 310 310 310 309 309 309 309 308 308 308 308 308 308 308 308 308 308 307 307 307 307 307 306 306 305 304 303 302 301 301 300 300 300 299 299 300 300 300 300 301 301 301 301 301
311 311 311 312 312 311 311 311 312 312 312 312 312 312 313 314 314 315 315 315 314 315 315 314 314 314 315 315 313 312 311 311 310 310 310 310 310 310 310 310 310 310 310 310 309 309 308 308 308 308 308 308 307 307 308 307 307 307 307 306 306 305 305 304 303 302 301 301 300 300 300 300 300 300 301 301 301 302 302 301 301 301 300 300 299 298
311 312 312 312 312 311 311 312 312 312 312 312 313 313 312 313 313 314 314 314 313 314 315 314 314 313 314 314 311 309 310 311 311 311 310 309 310 310 310 310 310 310 309 309 308 308 308 308 307 307 307 307 307 307 307 306 306 306 305 304 303 302 301 301 300 300 300 300 300 301 301 301 301 302 301 301 301 300 300 299 298 297 297 296 296 295
311 311 312 312 312 312 312 312 312 312 312 313 315 315 312 312 313 314 313 313 313 313 314 314 314 314 315 313 309 309 311 312 312 312 311 310 310 309 309 309 309 309 308 308 308 307 307 307 306 306 306 306 306 306 305 305 304 303 302 301 300 300 300 300 301 301 301 301 301 301 301 300 300 300 299 298 297 296 296 295 295 294 294 294 293 293
311 310 311 312 312 312 312 312 312 312 313 316 317 314 311 312 313 313 313 313 312 312 313 314 314 314 314 312 310 310 312 312 312 312 311 310 310 309 308 308 308 308 308 307 306 306 306 305 305 305 305 305 305 304 303 302 300 300 300 300 300 301 301 301 301 301 300 300 299 298 298 297 297 296 295 295 294 294 293 293 293 293 293 292 292 292
311 310 310 311 312 312 312 313 312 311 316 320 316 310 310 312 312 313 313 313 312 312 312 313 313 313 313 312 310 310 311 311 310 310 310 309 309 308 307 307 307 307 307 306 306 305 305 305 305 304 304 304 303 302 300 299 299 300 300 301 302 301 301 300 299 298 297 297 296 295 295 295 294 294 293 293 293 292 292 292 292 292 292 292 292 292
312 312 311 311 311 311 312 313 312 312 315 318 313 309 310 313 313 313 312 311 311 312 312 312 312 312 311 312 311 310 310 309 308 308 309 309 308 307 306 306 306 306 305 305 305 304 304 304 304 303 302 301 300 299 299 299 300 301 301 301 301 300 298 297 297 296 295 295 294 294 294 293 293 293 292 292 292 292 292 291 292 292 292 292 292 292
313 312 312 312 312 312 312 313 313 314 315 313 310 309 311 312 313 312 311 310 311 311 311 311 311 311 311 311 310 310 308 307 306 307 307 307 306 306 305 305 305 305 305 304 304 304 304 303 302 301 299 298 298 299 299 300 301 301 300 299 299 297 296 296 296 295 294 294 293 293 293 292 292 292 292 292 291 291 291 291 291 291 291 291 291 291
313 313 314 313 312 312 313 313 314 314 313 311 311 311 311 311 312 311 311 310 310 311 311 311 311 311 310 310 309 308 307 306 305 305 306 306 305 304 304 304 304 304 304 303 303 303 302 301 300 298 298 298 299 300 300 301 301 299 298 298 298 296 296 295 294 294 293 293 293 292 292 292 292 291 291 291 291 291 291 291 291 291 291 291 291 291
313 313 313 313 313 313 313 313 314 313 311 310 312 312 311 311 311 310 311 311 311 311 312 312 311 310 309 308 308 307 306 305 305 305 305 304 304 304 304 303 303 303 303 303 302 301 300 299 298 298 298 299 300 300 300 300 300 298 297 297 296 295 294 294 293 292 292 292 292 292 291 291 291 291 291 291 291 291 291 291 291 291 290 290 290 290
310 309 310 312 313 313 312 311 310 309 309 309 309 309 309 310 310 309 310 311 311 312 312 311 311 310 308 307 307 306 305 305 305 304 304 304 303 303 303 303 303 303 302 301 300 299 298 298 298 299 299 299 299 300 300 298 297 296 296 295 294 293 293 292 292 292 292 291 291 291 291 291 291 290 291 291 290 291 290 290 290 290 290 290 289 289
308 307 309 312 312 313 314 312 309 308 308 307 308 308 308 309 309 309 310 311 311 311 310 310 310 310 309 308 308 307 306 305 305 304 304 303 303 303 302 303 302 301 300 299 298 298 298 299 299 298 298 299 299 298 297 296 295 295 294 294 293 292 292 291 291 291 291 291 291 291 290 290 290 290 290 290 290 290 290 290 290 289 289 289 289 289
309 308 310 312 311 312 312 310 306 305 305 306 307 308 308 309 309 309 310 310 310 310 310 309 309 309 309 308 307 307 307 306 305 305 304 303 303 302 302 302 301 299 298 298 298 299 299 298 298 298 297 297 297 296 295 295 294 294 293 292 292 291 291 291 291 291 291 291 290 290 290 290 290 290 290 290 290 290 290 289 289 289 289 289 288 288
307 308 309 310 310 310 310 306 304 305 307 306 307 308 309 310 310 309 309 310 309 309 309 309 309 309 308 307 307 307 307 305 305 305 304 303 303 302 301 300 299 298 298 298 299 299 298 297 296 296 296 296 295 295 294 294 293 292 292 292 291 291 291 291 291 291 291 290 290 290 290 290 290 290 290 289 289 289 289 289 289 289 288 288 288 288
306 308 309 309 310 311 310 307 307 309 310 308 308 309 310 310 309 308 308 308 308 308 308 308 308 308 307 307 307 306 306 306 305 304 304 303 302 302 300 299 297 297 298 299 299 298 297 296 295 295 295 295 294 294 293 293 292 292 291 291 291 291 291 291 291 291 290 290 290 290 289 289 289 289 289 289 289 289 289 289 288 288 288 288 288 288
307 308 308 309 310 310 309 309 308 309 310 309 308 309 309 309 308 308 308 308 308 308 308 308 308 308 307 307 306 305 306 306 305 304 303 303 302 300 299 298 298 298 299 299 297 296 295 295 294 294 294 293 293 292 292 292 291 291 291 291 291 291 291 291 290 290 290 289 289 289 289 289 289 289 289 288 288 288 288 288 288 288 288 288 287 288
Wind_Speed
9 6 6 9 9 11 13 11 5 0 3 7 8 8 6 6 5 4 6 3 2 4 8 11 12 12 13 12 12 11 11 11 12 13 13 13 13 13 14 16 18 22 25 25 24 24 25 25 26 27 28 29 29 29 29 28 28 28 29 29 30 29 28 28 28 28 28 27 26 25 25 24 23 22 22 23 24 24 24 23 22 21 20 20 19 18
7 7 9 10 8 10 12 6 1 1 1 4 6 6 6 5 3 5 5 4 3 3 6 8 10 13 13 12 13 14 13 14 16 16 17 18 17 16 16 18 20 21 23 24 25 25 24 24 26 28 30 31 32 31 31 31 31 30 30 30 31 30 30 30 30 30 30 29 28 26 25 25 23 22 22 22 22 23 23 23 23 21 20 21 20 19
6 9 9 7 3 4 5 4 3 2 2 3 4 5 5 4 4 4 4 5 4 3 3 3 6 11 12 13 14 15 16 17 19 19 19 19 19 19 18 19 20 22 25 27 27 25 24 23 25 28 30 31 32 32 32 32 32 32 32 32 32 32 32 32 31 31 30 29 28 27 25 24 22 21 22 22 21 22 22 22 23 21 21 21 21 19
8 6 3 5 6 6 5 5 6 4 4 4 4 5 3 3 3 2 4 5 3 3 3 4 6 9 11 12 13 17 19 18 17 17 18 18 19 19 18 18 18 20 26 28 28 27 26 25 26 28 29 29 30 32 33 33 33 33 34 34 34 33 33 32 31 31 30 29 28 27 27 24 20 19 21 21 21 22 21 21 21 20 20 21 22 21
5 1 1 3 6 8 7 7 9 6 6 5 4 5 2 4 3 2 4 5 2 3 2 5 7 8 10 12 12 13 14 14 13 14 16 19 23 23 22 23 23 23 26 27 28 28 28 28 29 29 29 29 30 31 32 32 32 33 34 34 34 34 33 32 31 30 29 30 29 28 28 26 23 22 22 21 21 21 20 20 20 20 20 21 22 22
2 2 1 5 6 7 8 7 9 8 6 5 5 4 1 2 4 5 6 5 2 4 2 2 5 5 5 10 11 7 6 9 10 11 16 19 21 24 27 30 30 30 30 29 29 29 30 30 30 31 31 32 32 32 32 33 33 33 33 33 33 34 33 32 31 30 29 30 29 29 29 29 27 27 26 25 24 22 20 19 19 18 18 19 19 20
2 2 2 5 7 8 7 7 8 7 6 4 3 2 1 1 4 6 6 4 2 2 2 2 5 4 2 5 6 5 4 7 8 9 13 15 14 16 22 25 27 29 30 30 31 31 32 32 32 32 32 33 34 34 35 36 36 36 34 33 33 34 34 33 32 31 30 30 30 30 30 30 28 27 27 25 23 22 21 20 19 19 20 20 19 19
4 5 2 5 7 7 7 7 7 9 7 2 1 1 4 3 4 6 5 4 2 1 2 3 3 4 6 4 2 3 4 8 8 9 12 14 12 12 14 16 18 21 23 25 27 28 30 31 31 31 32 33 34 36 37 38 39 39 38 36 35 34 34 34 32 31 30 30 30 30 30 30 29 27 25 23 20 19 20 21 20 21 22 22 20 20
3 6 6 8 8 6 5 1 4 9 6 0 1 1 3 2 3 5 5 3 1 1 4 5 4 4 7 4 3 3 6 9 9 10 10 9 9 8 7 9 11 14 16 19 21 23 24 26 27 27 28 29 30 32 34 36 38 39 40 40 39 37 36 35 33 32 31 30 30 30 30 29 29 27 24 22 20 19 19 19 20 20 20 20 19 19
1 2 3 5 6 4 3 4 2 2 2 3 4 4 6 3 3 2 3 2 1 4 6 5 6 5 6 4 4 4 5 7 8 8 5 4 5 5 4 5 7 10 12 15 17 19 21 23 24 24 25 25 25 26 28 29 31 33 36 39 40 40 39 38 36 34 33 32 31 30 29 29 29 26 23 21 20 20 20 19 18 17 16 16 17 19
1 2 1 1 1 2 5 5 5 3 5 8 6 6 7 4 3 1 1 1 3 5 3 2 3 4 5 4 5 3 2 3 4 4 3 5 4 3 3 2 3 6 10 13 15 17 19 21 23 23 24 24 23 22 21 20 21 22 26 30 35 39 40 39 38 35 34 33 32 30 29 28 28 24 21 21 21 21 21 19 17 16 15 16 17 19
3 4 2 2 2 4 5 6 5 3 5 5 4 6 5 3 3 2 3 2 5 5 1 2 1 3 5 4 2 1 2 1 1 2 3 4 4 4 3 1 3 6 9 10 11 13 15 17 20 21 22 22 21 19 17 16 16 16 17 20 25 31 36 37 36 34 33 32 31 29 29 28 25 22 21 21 21 21 20 19 18 17 17 18 19 20
4 3 2 3 2 4 4 6 5 2 3 3 5 7 5 4 4 4 4 4 5 3 2 1 1 3 7 8 6 6 6 2 2 3 2 2 3 3 1 1 5 7 7 7 6 7 8 10 13 14 15 17 17 16 15 14 14 14 14 14 17 22 27 31 32 32 31 30 29 28 28 26 23 21 21 21 21 20 19 19 18 17 18 19 20 20
4 2 3 4 3 6 6 5 5 4 5 6 7 7 5 5 4 5 6 4 4 1 1 1 0 3 6 7 9 11 7 1 1 3 4 5 5 5 6 5 4 5 6 4 3 2 2 4 5 7 8 10 12 12 12 12 13 13 12 13 15 17 21 24 26 28 28 27 27 27 25 23 22 21 21 21 20 19 18 18 17 16 17 18 19 19
7 3 5 5 4 7 7 2 1 5 7 4 2 2 4 4 3 5 4 3 2 2 1 2 2 4 4 1 2 6 4 2 3 6 7 10 11 10 9 6 2 3 3 2 1 1 2 3 3 4 6 7 8 8 8 9 10 11 11 12 13 15 16 19 21 23 24 25 25 24 22 21 20 20 20 20 19 17 16 16 15 16 16 17 17 16
8 3 1 1 1 5 5 1 2 4 6 2 1 0 3 2 0 1 0 0 1 1 2 4 3 5 4 4 6 7 5 4 5 4 5 7 7 6 6 5 3 2 1 0 1 2 2 3 4 4 5 5 6 6 6 7 8 9 10 11 12 13 14 16 18 19 21 22 21 20 19 19 20 19 19 18 16 15 14 14 14 14 13 13 13 13
6 2 2 2 2 2 2 2 2 1 3 2 1 2 2 1 3 3 1 2 0 4 3 4 4 5 4 6 8 7 5 4 5 4 4 5 5 5 5 6 5 3 2 2 2 4 4 4 4 4 4 4 4 5 6 7 8 9 9 10 11 12 13 15 16 17 18 18 18 18 19 19 18 18 17 15 13 12 12 12 12 11 11 11 12 13
4 3 2 1 2 3 3 2 3 3 2 2 3 4 4 1 1 1 2 1 2 5 3 4 6 6 3 3 2 2 3 2 5 3 1 3 5 5 7 9 7 4 4 3 4 5 5 5 4 4 4 4 4 5 6 6 7 8 9 10 11 11 12 13 14 15 15 16 17 17 17 16 15 14 13 12 10 10 11 10 10 10 11 12 13 15
2 3 2 3 1 2 1 1 3 2 2 1 2 2 3 2 3 3 3 3 4 5 4 4 6 5 5 5 2 2 2 2 4 3 0 3 4 6 9 10 7 5 6 5 5 6 6 5 5 4 4 5 5 6 6 7 8 8 9 10 11 12 12 13 14 14 15 15 15 14 14 14 13 12 10 9 9 9 10 10 10 11 12 14 15 16
2 1 2 1 1 2 1 3 5 5 2 1 1 1 0 1 2 3 3 3 4 5 5 4 4 4 5 6 7 8 5 2 3 3 2 3 3 6 9 9 8 8 7 6 6 7 7 7 7 6 6 6 6 7 7 9 9 10 11 11 12 13 13 13 14 14 14 13 13 12 12 12 11 9 8 8 8 10 11 11 12 13 14 15 16 17
2 1 3 3 1 2 4 4 4 6 6 4 4 5 4 1 0 1 3 2 2 4 5 5 5 4 1 3 6 5 1 1 2 3 2 2 2 6 9 9 9 9 8 7 6 7 8 9 9 8 8 7 8 9 10 11 11 12 13 13 13 13 13 13 13 13 12 12 12 12 11 10 9 8 7 8 10 12 13 13 14 14 16 17 17 18
2 1 4 5 3 4 2 1 1 0 2 4 5 7 8 5 3 3 4 2 1 3 4 4 5 3 1 1 3 3 3 2 2 2 3 2 2 5 7 7 8 9 8 7 6 7 8 9 10 10 10 9 10 11 11 12 13 13 13 13 13 13 13 13 12 12 12 12 12 11 10 9 8 8 9 11 13 14 14 14 15 16 17 18 19 20
2 3 5 5 3 2 1 2 1 1 1 1 2 4 5 6 6 6 5 4 3 2 1 2 4 3 2 1 1 3 4 4 2 2 3 2 3 6 6 6 6 6 7 7 6 6 6 8 9 9 9 10 10 11 12 12 12 13 13 13 13 13 13 13 13 12 12 11 11 9 9 9 9 11 12 13 14 15 15 16 17 18 19 19 20 21
2 3 5 4 3 2 1 1 2 1 1 2 4 4 6 7 7 4 2 2 4 4 2 3 5 4 1 2 0 2 3 3 3 5 5 4 6 8 8 7 6 5 5 4 4 4 4 6 8 10 10 11 12 12 13 14 14 14 14 14 13 13 13 12 12 11 11 10 10 10 10 11 12 13 14 15 16 17 18 18 19 19 19 20 20 22
6 4 5 5 4 3 2 2 2 3 4 5 4 5 7 6 3 2 0 1 3 6 7 5 7 6 1 3 1 1 2 2 3 6 8 7 7 9 9 8 7 5 4 3 2 3 4 6 8 10 12 13 14 14 16 16 16 15 14 13 12 12 11 11 10 10 10 10 10 11 12 13 14 16 17 18 18 18 19 19 19 19 19 20 20 21
8 5 7 7 7 7 7 7 7 5 5 4 2 4 9 9 7 5 3 3 4 6 7 6 8 6 1 3 4 4 4 4 4 7 10 10 10 10 10 9 8 6 5 4 4 4 5 6 8 11 13 14 15 16 17 17 16 14 13 12 11 11 10 9 9 10 10 11 12 13 14 15 16 17 18 18 17 17 17 17 18 18 18 19 19 19
4 4 9 11 10 10 11 9 5 7 7 8 10 10 12 14 13 8 3 5 7 5 5 8 11 10 5 5 7 6 6 7 7 8 11 12 12 12 12 11 10 9 7 6 6 6 6 7 9 11 13 15 17 17 17 16 15 13 12 12 11 11 10 11 11 11 12 13 14 15 16 16 17 16 16 15 15 15 15 16 16 17 16 16 16 16
3 6 11 13 14 13 11 6 8 11 11 14 16 14 12 13 14 11 7 10 10 5 6 11 13 14 11 8 9 8 8 8 8 10 11 12 14 14 13 12 11 11 10 9 8 8 9 10 11 13 15 16 17 17 16 15 14 13 12 12 12 12 12 12 12 13 13 14 15 15 15 15 15 14 13 13 13 13 14 14 14 14 14 14 14 15
3 7 10 11 13 14 8 1 8 12 11 12 15 15 14 14 15 14 13 14 11 7 10 15 16 16 15 12 11 11 10 8 9 11 11 12 15 16 13 13 13 13 13 11 11 12 13 13 14 14 15 16 16 16 15 14 13 12 12 12 12 12 12 13 13 13 14 14 14 13 13 12 12 12 11 11 12 11 12 12 12 12 13 13 14 15
2 6 9 9 10 13 7 3 5 10 9 9 13 14 14 16 17 17 15 16 15 13 16 20 20 17 14 11 12 13 12 11 10 11 11 12 15 16 15 14 13 14 15 15 13 12 12 12 13 14 15 15 15 14 14 13 13 12 12 12 13 13 13 13 13 13 12 12 12 11 11 11 10 10 10 10 10 10 10 11 12 13 14 15 15 16
4 5 6 6 6 11 8 5 5 8 8 8 8 8 10 12 14 15 14 15 17 17 20 21 18 15 12 10 13 15 14 12 10 10 11 11 13 15 15 15 14 15 16 13 10 10 11 12 14 15 14 14 14 14 13 13 13 13 13 13 13 13 13 12 12 11 11 11 10 10 9 9 8 8 8 8 8 9 10 11 12 13 14 14 15 15
5 3 2 5 6 9 8 8 7 4 1 4 4 7 12 12 12 14 14 16 16 17 19 18 14 13 11 9 12 14 13 11 9 10 12 11 13 15 15 14 12 10 8 6 8 11 14 15 15 15 14 13 13 13 13 13 13 13 13 13 13 12 12 11 10 10 9 9 8 8 7 6 6 6 7 7 8 9 10 11 11 11 12 12 12 13
6 5 3 6 7 6 4 6 8 7 2 4 7 12 16 16 16 15 14 16 17 15 15 12 12 12 7 6 10 11 10 10 10 11 13 13 13 13 12 10 8 9 9 9 11 15 17 17 17 16 15 14 12 12 12 12 13 13 12 12 11 11 10 9 9 8 8 7 6 6 5 5 5 5 6 7 7 8 8 9 9 10 11 11 13 14
7 7 5 6 6 4 2 5 6 6 6 8 10 14 18 18 18 16 13 15 16 15 13 12 13 11 4 7 10 10 10 14 17 19 21 20 17 14 11 10 11 13 12 12 13 16 18 19 19 18 16 15 14 13 12 12 12 11 11 10 9 9 9 8 7 7 6 5 4 4 4 3 4 4 4 5 6 6 7 9 10 11 13 15 16 18
8 7 5 6 5 3 4 6 5 8 10 9 6 10 16 16 15 14 15 17 18 19 19 18 17 12 6 8 12 14 17 22 24 24 25 25 25 23 18 15 16 16 15 16 16 17 19 19 19 18 17 15 13 12 11 11 10 10 9 9 8 8 7 7 6 5 4 4 3 2 2 2 2 2 3 4 6 8 9 11 14 15 17 19 21 23
9 7 5 6 5 3 4 6 7 4 4 4 0 2 9 11 11 12 14 16 18 18 17 17 18 17 13 12 14 16 19 22 21 22 25 26 27 26 22 20 19 18 18 19 19 19 18 18 18 17 16 14 12 11 10 9 9 9 8 8 7 7 6 5 5 4 4 3 2 1 1 1 2 3 5 7 9 11 13 15 18 20 21 23 25 26
7 8 6 6 6 5 5 7 5 3 2 3 4 6 10 12 12 12 11 13 15 15 15 15 17 20 19 15 13 14 15 13 10 15 23 25 23 23 23 22 21 20 19 19 18 17 17 16 15 14 13 13 12 11 10 10 10 9 9 8 8 7 6 6 5 5 4 3 2 1 1 3 5 7 9 11 13 15 17 19 21 23 24 26 27 29
5 6 6 7 6 5 6 7 6 5 7 9 8 10 14 14 13 12 10 10 11 15 20 18 17 20 16 9 14 16 12 6 3 11 22 24 23 25 25 23 22 20 19 18 17 16 16 14 14 13 12 12 12 12 12 11 11 10 9 9 9 8 7 6 5 4 3 1 1 3 5 7 9 11 13 14 16 17 19 21 22 24 26 28 30 31
4 3 4 6 6 6 7 8 7 6 8 9 5 5 11 14 10 8 7 9 11 19 25 21 18 21 13 12 18 15 8 4 6 12 21 25 26 28 25 22 21 19 18 18 16 15 15 14 13 13 13 13 14 13 14 13 12 12 11 10 10 8 7 5 4 2 1 2 4 6 8 9 11 13 14 16 17 19 21 22 24 26 27 29 31 33
5 3 4 6 7 8 7 7 7 5 5 6 4 5 11 16 14 8 6 10 12 17 24 23 20 20 15 16 20 13 7 9 11 12 18 23 25 25 22 20 21 19 18 18 16 15 15 14 14 15 15 16 16 15 15 14 13 13 11 10 9 7 5 3 1 1 2 4 5 7 9 10 12 14 15 17 19 20 22 24 26 27 28 30 32 33
5 5 6 8 8 9 9 8 7 4 3 4 6 11 18 18 12 9 9 7 4 10 20 25 22 22 21 20 20 15 15 18 17 12 13 18 21 23 21 19 19 18 17 17 16 16 16 16 16 17 17 17 18 17 17 15 13 11 10 7 5 4 3 1 2 3 4 5 7 8 10 12 14 15 17 19 20 22 23 25 26 28 29 31 32 34
7 6 7 8 8 8 8 8 6 5 5 6 8 15 20 14 6 8 6 4 7 10 16 22 22 23 24 22 22 22 20 18 15 11 12 17 21 23 22 20 20 20 19 19 18 18 18 18 18 18 19 18 18 17 16 14 12 9 7 5 3 2 1 2 3 4 5 7 8 10 12 13 15 17 18 20 22 23 24 25 26 28 30 31 33 35
7 6 6 7 7 6 6 7 8 8 7 14 14 8 10 6 2 6 10 6 6 9 13 17 19 20 20 17 19 22 19 16 15 14 16 19 21 22 22 21 22 22 21 21 21 20 20 19 19 20 19 19 17 15 13 11 9 7 5 4 3 3 3 4 5 6 7 8 10 11 13 15 16 18 19 21 22 23 25 26 27 29 31 33 34 36
8 8 6 6 7 7 6 8 7 4 5 20 15 4 10 10 3 8 9 6 6 9 11 13 16 18 18 18 20 21 20 18 18 18 20 22 22 23 23 23 23 24 24 23 23 22 21 20 20 20 19 17 15 12 10 9 7 6 5 4 4 4 5 6 6 7 8 10 11 12 14 16 17 18 20 21 22 24 25 27 29 30 32 34 36 38
8 7 4 4 6 6 4 6 5 2 10 18 10 3 13 20 11 3 4 5 6 9 10 12 16 18 19 19 20 21 21 20 20 21 22 24 25 25 25 25 25 25 25 24 24 23 22 21 20 19 17 15 13 11 9 8 7 6 5 5 5 6 6 6 7 8 9 11 13 14 15 16 17 19 20 21 23 25 27 29 30 32 34 36 38 40
2 2 3 2 2 2 3 6 5 4 6 9 6 2 9 19 20 13 7 5 7 8 9 10 12 15 16 17 18 20 21 21 22 24 25 26 26 27 26 26 27 26 25 25 25 23 22 21 19 17 16 14 12 10 9 8 7 7 6 7 6 6 7 7 8 10 11 12 14 15 16 18 18 19 21 22 24 26 28 30 32 34 35 37 39 41
0 2 3 3 3 4 7 7 4 3 3 5 7 7 7 12 19 19 13 8 8 8 8 8 9 10 13 15 17 19 21 23 25 27 28 27 28 28 28 28 28 28 27 26 25 23 22 20 18 17 16 14 12 10 9 9 8 7 7 7 7 7 8 8 9 11 12 14 16 17 18 19 20 21 22 24 26 28 29 31 33 34 36 38 39 41
3 5 5 6 7 6 5 2 2 2 6 8 10 12 9 10 16 19 16 14 12 11 11 11 11 12 14 15 17 18 21 24 26 27 29 29 29 30 30 29 29 29 28 27 25 23 22 20 19 17 15 13 12 10 10 9 9 8 8 8 8 8 9 10 11 13 14 16 17 18 19 20 21 23 25 26 27 28 29 31 32 34 35 37 38 40
4 7 5 5 7 6 3 1 2 1 4 8 13 16 15 13 15 18 20 20 17 15 13 12 13 13 14 16 18 19 22 26 27 28 29 31 31 32 31 31 30 29 28 26 24 21 20 19 17 16 14 13 12 11 11 10 9 9 9 9 9 9 10 11 13 14 16 17 18 19 20 21 23 24 25 26 27 28 29 30 32 33 35 36 37 38
4 5 3 3 6 6 3 5 7 4 3 6 13 19 21 21 19 19 21 20 17 14 12 13 14 15 16 18 19 21 23 27 29 30 31 32 32 32 32 31 31 29 26 24 22 20 19 18 16 15 14 13 13 12 11 11 10 10 9 10 10 10 11 13 15 17 18 18 19 19 20 21 22 23 24 25 27 28 29 30 31 33 34 35 35 36
6 6 5 5 5 4 1 8 13 10 5 3 5 11 18 22 21 18 17 15 13 12 12 14 15 17 18 20 21 22 24 26 29 31 32 32 32 32 32 31 29 27 24 22 21 21 20 18 16 16 15 14 14 13 12 11 11 10 10 11 11 12 13 15 16 17 17 17 17 18 19 20 21 23 24 26 28 30 31 32 32 32 32 33 33 34
Wind_Direction
181 180 197 207 202 200 204 211 217 263 225 211 198 207 208 198 199 135 100 102 198 225 225 229 241 251 254 253 252 238 213 212 227 231 234 233 233 233 232 234 236 242 245 242 237 236 236 235 234 233 233 232 231 230 231 233 235 235 237 240 241 241 241 242 244 244 245 244 243 242 243 245 247 248 248 249 251 255 257 256 255 252 251 249 245 242
187 206 206 206 207 198 196 195 161 85 200 225 211 204 213 214 180 103 99 123 144 240 237 225 245 255 257 258 255 250 240 234 234 234 236 237 237 237 234 236 239 244 247 246 242 240 239 239 237 236 235 235 234 234 235 237 237 237 237 239 240 241 241 241 242 244 246 248 248 249 251 252 250 249 251 256 258 258 257 258 260 257 251 247 243 239
196 218 204 179 128 138 152 149 180 211 196 218 220 212 221 200 144 111 117 128 144 231 242 225 260 261 259 259 254 247 244 244 242 239 239 239 239 239 237 237 238 242 246 248 247 245 243 241 239 238 237 236 237 237 238 238 238 237 236 236 238 239 239 240 241 243 246 248 250 252 254 255 254 251 252 256 258 258 257 255 257 259 256 252 248 244
194 209 188 128 121 135 136 165 188 203 208 216 217 214 211 158 168 187 150 143 160 235 294 312 287 273 264 258 252 243 239 243 243 239 239 236 236 236 234 234 232 235 244 248 247 247 245 243 241 239 237 237 237 238 238 238 237 237 236 236 237 238 239 240 240 242 245 247 249 250 251 250 249 248 250 251 250 250 253 255 256 259 259 257 255 252
177 102 33 127 157 171 166 177 192 202 208 216 230 231 213 158 173 51 120 151 176 206 265 298 283 272 252 242 245 235 227 237 236 234 238 237 238 239 236 237 236 237 243 245 245 246 245 244 243 241 239 239 239 239 240 240 239 238 238 238 237 238 240 240 240 241 242 244 246 246 246 245 242 242 244 247 249 247 249 254 259 262 260 255 253 249
168 66 150 149 156 177 173 182 198 207 210 202 217 237 267 173 148 102 129 160 217 216 195 258 266 274 232 222 234 216 199 229 225 226 240 241 240 241 242 244 245 246 247 247 247 248 247 245 244 242 240 240 241 242 243 243 243 242 240 239 238 238 239 239 239 239 240 242 244 244 245 245 244 245 245 247 251 252 251 252 256 260 258 254 254 252
121 117 169 156 155 164 177 199 198 202 223 209 200 204 141 179 146 134 158 189 247 227 138 214 250 274 249 216 219 191 202 236 222 220 239 240 231 230 241 247 248 249 250 250 250 250 250 248 246 244 243 242 243 244 245 245 244 243 242 240 238 238 237 237 237 237 238 239 241 244 245 248 249 250 251 253 253 252 251 251 249 249 250 251 252 254
110 140 158 158 160 164 185 204 182 192 223 216 39 173 158 178 177 161 179 220 268 45 147 208 236 276 272 251 161 157 234 253 239 232 237 235 222 216 232 242 244 246 248 248 249 248 249 249 247 246 245 244 244 244 244 244 243 243 242 240 239 238 237 236 235 236 238 238 240 243 246 248 251 251 253 257 256 251 249 250 248 246 247 247 245 246
99 157 168 158 167 180 191 221 157 187 217 187 33 107 132 150 175 178 204 223 302 330 234 198 176 257 267 236 154 169 245 253 246 243 236 219 200 195 215 230 238 244 244 245 246 246 246 247 246 244 243 244 243 243 244 244 244 242 241 239 238 237 236 234 233 235 238 239 240 243 246 249 250 250 250 253 255 254 252 251 250 248 247 248 250 253
40 166 172 164 182 181 131 27 17 203 187 146 155 108 97 101 108 155 220 211 198 255 248 184 174 244 273 243 191 180 227 240 242 242 219 156 152 169 191 215 239 250 253 252 250 249 247 246 246 243 241 241 241 245 247 246 245 244 243 240 238 236 236 235 235 237 240 240 240 242 245 248 249 248 247 247 249 250 251 251 251 251 250 250 254 258
60 94 65 94 174 141 104 68 21 17 119 141 154 118 104 114 109 128 217 207 235 243 245 141 162 252 281 259 211 183 208 237 242 231 136 112 127 146 153 181 264 274 273 268 261 257 252 249 248 245 242 239 239 242 245 244 244 244 243 242 240 238 236 236 237 238 239 239 239 240 242 245 247 245 243 243 245 245 246 247 248 250 251 251 252 253
111 127 141 85 113 140 115 88 42 42 140 149 158 140 123 124 142 189 173 182 238 236 181 49 359 250 245 245 191 90 15 17 223 193 124 116 123 121 124 94 332 310 294 283 273 265 256 249 246 243 239 233 232 235 238 242 243 243 242 240 239 238 236 236 236 235 235 236 236 237 240 243 241 239 239 241 243 244 246 246 247 248 248 249 250 251
130 123 132 102 148 198 157 113 84 77 183 203 172 159 167 165 169 208 193 195 231 223 99 78 337 247 244 253 253 268 280 253 200 200 153 106 114 109 125 332 337 323 310 300 286 272 256 246 241 237 235 230 229 233 237 240 239 239 239 237 235 234 234 233 232 231 231 233 234 236 238 238 234 233 236 239 241 243 244 245 246 245 244 246 248 249
152 112 167 153 174 218 206 156 144 170 193 197 180 177 193 178 177 207 200 206 225 179 73 177 238 259 261 265 255 258 267 1 114 221 246 257 251 267 274 276 314 324 320 315 292 270 236 223 218 218 218 219 223 227 229 229 228 230 231 230 228 227 229 229 227 227 228 230 233 234 233 230 229 231 234 238 241 241 242 243 243 243 243 245 247 249
179 182 183 168 152 184 196 216 173 156 169 193 189 193 212 204 210 209 201 213 197 113 114 187 206 236 246 354 270 260 265 275 263 245 252 258 257 269 269 255 280 318 317 323 279 206 183 185 179 191 198 201 211 214 215 218 218 220 219 219 221 220 221 222 222 224 225 228 230 229 226 225 227 231 234 237 239 238 238 239 241 241 243 247 251 256
193 196 118 77 94 162 167 297 336 129 151 192 8 237 233 249 66 135 130 91 109 55 175 187 235 247 262 307 281 254 225 217 236 229 238 250 250 264 255 211 193 266 265 212 201 168 160 175 172 182 191 191 197 199 201 203 202 206 207 208 211 212 213 215 216 219 221 222 223 221 221 223 227 230 232 234 234 233 235 238 243 246 251 258 265 273
190 175 43 51 90 102 79 3 360 81 152 162 163 186 206 17 71 114 151 92 56 279 219 174 239 261 274 283 264 243 218 182 166 177 208 218 225 252 238 194 183 204 196 173 184 173 165 172 172 175 180 179 178 176 178 182 186 190 193 196 200 202 205 207 209 211 213 214 215 216 219 222 226 227 229 231 230 232 236 242 251 260 268 274 279 280
169 127 35 13 111 64 7 57 69 23 38 132 179 172 144 42 32 158 237 173 196 253 242 179 230 258 261 258 229 197 236 196 148 151 222 212 221 230 203 188 187 191 183 167 173 182 182 178 176 176 170 161 156 160 164 169 175 180 183 188 193 195 199 201 203 206 208 211 213 215 218 219 221 222 222 225 227 233 243 252 262 271 274 275 275 276
132 123 63 8 80 84 13 154 122 52 18 26 236 170 132 206 210 183 214 232 218 236 253 213 217 242 238 233 224 189 229 205 144 131 163 186 198 200 185 182 186 185 178 171 173 185 194 192 187 179 169 163 159 160 164 166 171 178 182 185 188 190 194 196 200 203 205 208 209 209 210 211 213 213 214 220 229 242 253 258 262 264 267 270 274 280
100 149 138 40 354 112 136 211 188 174 150 22 280 184 109 270 230 192 199 233 238 236 253 238 212 231 223 215 229 236 248 232 143 114 118 145 155 180 180 175 178 183 185 188 189 193 198 199 199 193 184 181 176 173 174 176 179 184 186 188 189 191 193 195 198 201 202 202 201 201 202 202 203 205 212 227 242 251 254 256 260 264 271 277 283 289
126 249 155 109 334 182 177 209 204 180 169 173 183 177 182 187 16 253 221 224 259 241 247 249 245 248 208 182 215 226 252 84 98 88 122 137 135 167 173 174 179 187 194 203 209 211 209 202 200 199 196 193 189 187 188 190 191 191 191 192 193 193 195 196 198 198 197 195 193 193 193 194 200 209 226 242 248 252 254 258 266 273 279 285 290 295
166 194 142 137 186 195 178 343 352 38 163 182 188 187 190 177 152 198 212 181 207 242 246 259 264 259 115 133 204 154 102 106 103 98 131 146 164 160 162 171 181 190 202 213 221 225 223 213 205 200 197 196 196 197 198 198 197 195 193 192 191 192 192 192 192 190 188 186 186 187 190 198 212 226 239 247 250 255 261 267 274 279 285 291 295 299
90 109 118 130 169 169 70 34 58 23 334 284 240 207 195 187 188 205 212 189 185 211 1 320 279 274 116 129 192 123 114 125 144 152 147 175 185 155 144 156 171 189 208 219 228 232 231 221 211 204 198 196 198 199 198 195 191 187 184 181 180 182 182 181 181 180 181 184 187 194 204 216 230 239 247 254 258 263 268 273 278 283 288 292 296 297
119 122 123 116 97 88 106 109 103 101 248 245 238 216 202 199 198 208 230 187 176 175 175 222 251 260 176 136 59 88 113 138 186 193 182 183 174 151 140 144 150 170 201 222 245 240 225 215 209 205 200 196 196 194 187 181 177 173 171 170 171 173 174 177 181 184 189 197 205 216 226 235 244 251 256 261 264 268 272 276 281 285 288 291 292 292
167 166 148 135 137 155 180 186 196 206 205 216 217 200 204 197 133 95 296 256 213 193 192 217 249 254 183 117 136 158 151 203 220 200 193 188 170 154 151 153 153 163 183 202 238 240 223 212 206 203 201 196 192 188 181 176 172 169 168 170 172 176 179 185 192 200 209 218 228 236 243 250 255 259 262 265 268 272 275 278 281 284 286 288 288 288
174 188 167 167 178 178 188 202 202 188 179 198 197 170 194 193 168 171 205 222 222 196 184 210 246 251 162 138 200 188 168 195 205 202 204 195 175 165 163 162 163 167 176 189 210 224 220 213 207 203 200 195 190 186 182 179 176 174 176 178 181 186 192 199 207 217 226 234 241 246 250 254 257 261 265 268 270 273 275 278 281 283 284 285 286 286
175 210 189 200 206 197 207 211 159 120 140 185 198 187 190 196 193 190 191 211 216 207 194 217 237 245 226 186 202 199 183 187 183 189 202 196 185 177 168 165 168 171 179 191 201 208 208 204 203 200 196 193 190 187 185 184 184 185 187 190 194 200 207 214 220 226 233 239 243 247 252 255 259 263 266 269 270 273 276 278 280 282 283 283 284 284
174 210 203 214 222 225 235 222 139 142 169 195 200 192 186 191 193 191 205 218 212 202 225 227 228 241 241 208 196 204 199 190 181 182 190 192 190 185 175 171 174 174 178 188 196 200 198 194 191 191 190 189 189 188 188 190 192 194 197 201 206 213 218 224 229 234 239 244 248 253 256 259 261 263 264 267 269 272 275 277 278 279 281 282 284 286
198 207 210 217 227 236 246 143 145 174 191 201 202 196 187 182 186 193 211 222 208 196 233 236 226 230 238 223 205 204 199 191 185 178 176 182 189 189 185 181 178 177 177 179 184 185 184 182 181 182 184 186 187 188 191 193 196 201 208 215 222 228 233 237 242 245 249 253 255 257 257 257 257 258 260 263 265 268 270 272 275 278 281 286 289 293
228 210 213 212 228 239 228 128 166 200 206 211 212 206 193 184 187 195 207 217 215 213 230 238 236 235 236 227 216 212 198 181 173 167 166 178 186 188 193 192 187 184 181 178 180 182 180 178 179 180 182 185 188 190 195 200 206 214 222 230 237 240 243 246 249 252 254 254 253 251 249 248 248 250 253 257 260 265 270 274 279 284 289 294 298 301
218 213 205 190 223 239 215 157 182 208 215 220 211 195 184 181 192 203 212 217 218 223 232 239 246 250 244 225 215 209 186 162 155 160 169 184 190 191 196 197 191 188 186 186 193 199 195 188 185 185 187 191 196 201 207 213 220 228 234 238 241 243 244 246 247 248 247 245 242 239 238 239 242 247 254 261 270 277 283 289 293 297 300 304 308 310
197 209 163 167 217 233 206 180 170 149 204 243 208 179 179 182 194 206 215 216 211 219 231 238 245 248 242 217 203 195 174 160 167 177 189 206 205 196 196 196 197 205 218 236 233 217 205 196 193 195 199 205 211 216 222 228 232 236 238 240 240 240 241 240 238 236 234 231 229 229 232 239 248 262 272 283 292 296 300 303 305 309 311 312 315 316
185 195 180 180 211 232 207 167 149 124 127 239 216 197 192 196 203 207 217 222 215 215 223 227 234 241 230 183 191 189 174 180 194 200 217 231 220 206 208 218 242 263 270 265 243 223 215 211 210 213 218 224 230 233 235 238 239 239 237 235 233 231 230 228 224 221 219 218 221 227 240 255 270 285 296 302 307 310 311 313 314 315 318 318 317 318
185 201 203 188 208 232 105 101 128 162 211 226 212 200 198 201 205 206 218 224 218 219 226 234 244 243 191 164 191 193 189 205 217 224 234 244 245 247 255 259 263 263 256 248 237 227 225 224 225 228 233 237 241 241 241 239 236 233 228 223 219 216 214 212 210 210 210 214 222 234 251 275 289 299 310 315 317 319 319 320 320 320 322 322 321 320
182 199 204 197 211 205 120 125 173 211 226 232 221 199 201 206 206 208 223 226 218 218 226 237 247 242 203 185 196 197 202 211 218 225 233 239 245 251 255 254 255 256 252 247 241 235 231 230 232 236 239 241 241 237 234 228 221 215 208 203 199 196 196 195 196 198 197 199 209 222 242 280 299 313 326 330 329 329 327 326 326 324 324 323 322 322
179 187 198 206 203 172 144 178 205 230 224 208 169 162 191 204 207 212 228 230 220 216 219 230 243 245 238 225 207 198 201 205 212 223 227 231 237 241 244 249 251 251 248 245 242 239 236 234 235 237 237 235 230 222 215 207 199 193 185 181 179 177 177 175 174 173 167 163 163 158 163 323 331 331 332 331 329 328 326 325 324 322 321 321 320 319
186 184 190 205 200 191 200 205 218 298 306 198 201 190 185 190 194 201 227 239 226 217 218 225 237 241 239 225 192 173 177 185 207 229 225 224 229 234 239 243 244 243 242 241 238 236 235 232 229 226 221 215 207 200 195 188 182 178 173 169 169 166 163 160 156 152 148 143 135 97 345 333 331 327 325 325 325 324 323 322 321 321 320 319 319 319
214 200 193 204 203 199 217 224 222 241 241 227 218 197 191 197 195 192 217 247 236 217 213 216 229 237 235 194 153 150 156 171 236 235 223 222 225 229 233 235 235 237 237 236 234 228 223 219 213 207 200 193 188 183 180 176 171 169 166 163 161 157 155 155 151 146 142 129 353 336 331 326 325 324 323 323 323 323 322 322 322 322 322 321 321 322
225 237 212 215 209 197 213 228 220 219 234 234 216 162 178 186 174 162 202 243 243 224 213 210 222 233 223 159 150 152 148 186 240 232 222 222 224 226 227 227 227 228 226 225 224 217 210 202 194 189 181 177 176 172 169 167 161 161 161 159 158 157 156 160 161 165 231 318 322 323 325 323 322 322 322 323 324 324 325 325 325 325 325 324 324 323
201 214 216 217 216 209 210 225 228 233 240 221 174 145 166 162 145 143 207 239 243 228 216 212 220 230 217 169 164 172 189 214 237 241 223 218 220 220 220 220 220 218 213 209 204 197 192 183 178 175 171 169 169 164 162 160 157 158 161 159 160 163 167 176 193 277 311 321 321 320 321 320 321 323 323 325 327 327 328 328 327 327 326 326 325 325
184 200 206 211 221 218 214 225 239 243 225 187 157 155 155 148 150 187 217 227 202 196 209 215 218 225 222 196 183 199 218 222 234 240 215 207 210 208 206 206 204 202 199 195 189 183 179 174 171 169 166 166 165 162 161 159 158 163 167 165 169 177 185 233 318 321 319 320 318 319 322 323 325 327 328 328 328 329 329 329 328 327 327 326 326 325
181 191 199 209 218 219 223 231 240 245 217 172 155 159 156 154 190 211 183 133 130 162 196 209 211 219 224 213 203 210 217 218 223 220 199 198 202 199 195 192 189 186 185 182 178 177 175 171 168 167 165 164 162 162 163 164 167 173 176 180 194 203 228 300 312 308 311 317 319 322 325 326 327 328 328 328 327 327 328 328 327 326 326 325 324 323
173 171 190 204 202 210 232 220 222 252 214 151 137 151 178 187 193 150 141 131 147 168 187 198 205 215 221 214 208 209 209 205 205 201 193 193 194 190 185 183 181 180 177 175 173 173 173 171 169 168 166 164 163 166 169 173 179 187 193 205 224 241 271 293 301 305 311 315 318 322 323 324 325 326 325 326 326 325 325 325 325 325 325 325 325 324
173 176 192 202 189 192 214 206 211 275 171 155 152 179 207 204 143 115 141 164 173 179 191 198 206 214 215 210 203 199 197 196 193 190 188 186 183 181 178 177 176 176 174 174 174 173 172 171 169 169 169 169 170 175 179 185 194 201 211 233 251 266 281 291 297 302 309 313 316 320 322 322 324 324 323 324 324 324 325 326 326 327 327 328 328 327
191 187 178 192 196 192 213 220 212 161 159 174 192 216 190 201 214 181 164 197 202 207 217 218 217 215 211 208 200 192 192 191 187 186 185 181 178 178 176 174 176 176 175 174 174 172 171 172 172 173 175 176 180 188 195 203 211 218 232 251 261 268 278 286 294 302 309 315 317 319 320 320 321 322 323 324 325 325 327 328 329 330 330 331 331 331
206 159 129 157 194 206 242 234 211 182 177 193 221 217 184 204 219 228 237 241 228 225 224 222 223 217 208 205 198 190 189 187 182 181 181 178 177 177 177 176 176 176 176 174 173 172 172 174 176 179 182 187 194 202 209 215 221 229 243 253 260 270 280 289 300 308 312 315 316 317 318 319 320 322 323 325 327 328 330 331 332 332 333 333 333 332
330 161 164 186 190 206 227 220 174 163 208 212 217 222 215 211 216 223 230 220 202 207 215 220 229 224 212 207 201 193 187 184 181 179 178 179 179 178 178 178 177 176 176 174 174 175 176 179 183 186 192 199 204 208 215 222 229 238 248 257 266 278 289 298 305 309 312 314 316 317 318 319 321 323 325 327 329 330 331 332 332 333 333 333 331 329
178 169 182 206 204 205 223 215 101 166 210 217 224 226 225 221 219 220 219 209 203 215 226 225 225 221 213 206 203 197 188 183 183 182 180 180 181 180 180 180 178 177 177 177 179 182 183 185 190 193 199 206 209 213 221 230 239 247 254 265 274 284 293 300 304 307 311 313 315 317 320 322 324 326 327 328 328 329 330 330 330 330 330 330 329 327
138 162 173 195 205 222 248 147 116 220 221 219 225 222 217 218 220 217 216 218 222 228 225 214 208 210 209 204 201 197 189 184 186 187 183 182 183 183 182 181 180 180 181 183 185 188 189 192 196 199 205 211 217 223 229 235 243 251 259 267 273 280 289 297 302 308 312 315 317 320 321 323 324 324 324 324 325 326 328 329 329 328 328 328 327 325
148 176 174 159 196 231 243 155 163 202 242 221 225 227 223 219 218 216 217 222 228 229 219 204 198 200 204 203 200 197 193 188 188 188 186 185 186 185 183 183 184 184 186 188 191 192 195 198 201 205 212 219 225 230 235 240 245 250 257 264 272 282 293 300 306 310 312 314 315 316 317 318 319 320 322 323 325 326 326 327 327 326 325 324 324 323
185 193 186 187 211 243 181 164 184 211 243 242 234 237 231 227 225 225 225 229 232 229 221 216 212 206 202 200 198 199 200 195 190 190 189 188 187 186 185 185 187 189 191 194 195 196 199 202 206 211 218 223 227 232 236 241 245 250 257 267 277 286 293 299 303 304 305 307 309 312 314 317 319 321 324 326 326 326 325 323 323 323 323 323 323 323